TimeCST,TemperatureF,Dew PointF,Humidity,Sea Level PressureIn,VisibilityMPH,Wind Direction,Wind SpeedMPH,Gust SpeedMPH,PrecipitationIn,Events,Conditions,WindDirDegrees,DateUTC
12:57 AM,28.0,19.9,72,30.28,10.0,NNE,8.1,-,N/A,,Clear,20,2013-01-21 06:57:00
1:57 AM,26.1,19.0,75,30.31,10.0,NNE,8.1,-,N/A,,Clear,20,2013-01-21 07:57:00
2:57 AM,25.0,18.0,75,30.33,10.0,NNE,9.2,-,N/A,,Clear,20,2013-01-21 08:57:00
3:57 AM,25.0,16.0,69,30.34,10.0,NNE,11.5,17.3,N/A,,Clear,20,2013-01-21 09:57:00
4:57 AM,23.0,14.0,68,30.35,10.0,NE,8.1,-,N/A,,Clear,40,2013-01-21 10:57:00
5:57 AM,21.9,14.0,72,30.36,10.0,NNE,6.9,-,N/A,,Clear,30,2013-01-21 11:57:00
6:57 AM,19.9,14.0,78,30.38,10.0,NE,6.9,-,N/A,,Clear,40,2013-01-21 12:57:00
8:57 AM,24.1,14.0,65,30.40,10.0,NE,9.2,-,N/A,,Clear,40,2013-01-21 14:57:00
9:57 AM,27.0,14.0,58,30.41,10.0,NNE,6.9,-,N/A,,Clear,30,2013-01-21 15:57:00
10:57 AM,30.0,12.9,49,30.41,10.0,NNE,8.1,-,N/A,,Clear,20,2013-01-21 16:57:00
11:57 AM,33.1,10.9,40,30.40,10.0,NNE,11.5,-,N/A,,Clear,20,2013-01-21 17:57:00
12:57 PM,36.0,10.9,36,30.36,10.0,Variable,4.6,-,N/A,,Clear,0,2013-01-21 18:57:00
1:57 PM,37.0,12.9,37,30.34,10.0,NNE,9.2,-,N/A,,Clear,20,2013-01-21 19:57:00
2:57 PM,37.0,14.0,39,30.35,10.0,North,8.1,-,N/A,,Clear,360,2013-01-21 20:57:00
3:57 PM,36.0,14.0,41,30.35,10.0,North,10.4,-,N/A,,Clear,350,2013-01-21 21:57:00
4:57 PM,33.1,15.1,48,30.34,10.0,NE,10.4,-,N/A,,Clear,40,2013-01-21 22:57:00
5:57 PM,28.9,16.0,58,30.34,10.0,NNE,6.9,-,N/A,,Clear,30,2013-01-21 23:57:00
6:57 PM,28.0,16.0,61,30.33,10.0,NE,4.6,-,N/A,,Clear,50,2013-01-22 00:57:00
7:57 PM,26.1,16.0,66,30.34,10.0,NE,4.6,-,N/A,,Clear,50,2013-01-22 01:57:00
8:57 PM,25.0,16.0,69,30.35,10.0,NE,3.5,-,N/A,,Clear,40,2013-01-22 02:57:00
10:57 PM,24.1,15.1,69,30.36,10.0,ENE,5.8,-,N/A,,Clear,70,2013-01-22 04:57:00
11:57 PM,24.1,15.1,69,30.35,10.0,ENE,8.1,-,N/A,,Clear,60,2013-01-22 05:57:00